Wind_Speed
9 9 8 8 9 9 9 8 8 8 7 8 8 7 8 8 8 7 7 7 7 8 9 9 10 10 10 10 11 11 12 12 11 12 12 12 13 14 14 14 13 13 13 14
10 10 9 10 9 9 10 9 9 9 8 9 8 8 8 8 9 9 8 8 8 8 9 9 10 10 10 10 11 12 12 12 12 13 13 14 14 14 14 15 14 14 13 13
11 10 11 11 11 11 10 10 10 10 11 10 10 9 9 9 9 9 8 8 9 9 10 11 11 11 11 11 12 12 13 13 13 13 13 14 14 15 15 15 14 14 14 14
11 11 11 12 11 11 11 10 11 11 11 11 11 9 10 9 8 8 9 9 9 10 11 12 12 11 11 12 13 13 13 13 14 14 14 14 14 15 15 14 14 15 15 14
11 11 12 12 12 12 11 11 12 12 12 11 11 11 9 9 8 8 9 10 11 11 11 12 13 13 13 13 13 13 14 14 15 15 15 15 15 15 15 15 14 15 15 15
11 11 12 12 12 12 12 12 13 14 13 13 12 12 10 9 9 9 10 11 11 12 13 13 14 14 14 14 14 14 15 15 16 16 16 15 15 15 15 15 16 16 16 15
11 12 12 13 14 13 13 13 14 14 14 13 13 13 11 10 10 10 11 12 12 13 14 13 14 14 14 14 14 14 15 16 16 16 17 16 16 16 16 16 16 16 16 15
12 12 12 13 14 14 14 14 15 15 14 13 13 13 11 11 11 11 12 12 13 13 13 13 14 14 15 15 15 15 16 16 16 17 18 17 17 16 16 16 16 16 16 15
14 13 14 14 14 14 14 15 16 16 15 14 14 14 13 12 12 12 13 13 13 14 13 14 15 15 15 16 16 17 17 17 17 18 18 18 17 17 17 17 17 17 16 16
14 14 14 15 15 15 15 15 16 16 16 16 15 14 14 13 13 13 13 14 14 14 15 15 15 16 16 16 17 18 19 19 18 18 18 18 18 18 18 18 18 17 17 17
14 15 15 15 15 16 16 16 16 17 18 17 17 15 14 15 15 15 15 14 14 14 15 15 16 16 16 17 18 18 19 19 19 19 19 19 19 19 19 19 19 19 19 19
14 15 15 15 15 16 17 17 17 18 18 18 18 16 15 15 16 16 16 15 14 15 15 16 16 16 17 17 18 18 18 19 19 20 20 20 20 20 21 21 21 20 20 20
15 15 16 16 16 16 17 17 17 18 19 18 19 17 17 17 17 17 17 17 16 16 16 17 17 17 17 18 17 18 19 19 19 20 20 20 20 20 21 21 22 22 21 21
17 17 17 17 17 17 17 18 18 19 20 20 19 18 17 18 17 17 17 18 18 17 17 18 18 18 18 18 18 19 19 19 19 20 20 20 21 21 21 21 22 22 22 22
18 19 18 18 18 19 19 18 19 20 21 21 20 19 18 18 18 18 18 18 19 19 18 18 19 19 19 19 20 20 20 21 21 20 20 21 21 21 22 22 23 23 23 22
20 20 20 20 19 20 20 20 20 20 21 21 20 19 19 20 20 20 19 19 20 20 20 19 19 20 20 20 21 21 21 21 21 21 21 21 22 23 23 23 23 24 24 24
21 21 20 20 20 21 21 21 21 21 21 22 22 21 21 21 21 21 21 21 21 22 22 21 21 21 22 22 23 22 22 22 22 22 22 22 23 23 24 24 24 25 25 25
22 22 22 21 21 22 21 21 22 23 23 23 22 22 21 21 22 22 23 22 22 22 22 22 22 23 24 23 23 24 24 24 24 23 24 24 24 24 25 25 25 25 25 25
22 22 23 22 22 21 19 20 21 22 23 22 22 21 22 22 22 22 22 22 23 23 23 24 24 25 25 25 25 25 25 25 25 24 24 25 25 25 26 27 26 26 26 26
23 23 23 23 23 21 18 19 21 22 21 20 21 21 21 22 23 22 23 23 23 24 24 25 25 25 25 25 25 25 25 25 25 25 26 26 27 27 27 27 27 27 27 27
23 23 24 24 24 23 20 20 20 22 21 21 21 21 21 22 23 23 23 23 23 24 24 25 25 26 26 26 26 26 26 26 27 27 27 27 27 28 28 28 28 27 27 28
23 23 24 24 24 23 22 22 22 22 22 23 23 22 23 23 24 24 24 25 25 25 25 25 26 26 27 27 27 27 27 27 28 28 27 28 27 28 28 28 28 28 28 29
24 24 24 24 24 23 23 23 23 23 23 23 25 24 24 24 24 25 25 26 26 26 27 26 26 27 27 28 28 27 28 28 28 28 27 27 27 27 27 28 28 29 29 30
25 25 25 25 24 24 24 24 24 24 24 25 25 25 25 25 26 26 25 26 27 27 28 28 28 28 28 27 27 28 28 28 28 28 27 27 27 27 27 28 28 29 29 30
25 26 26 26 25 25 24 24 24 24 25 25 25 25 26 26 26 27 27 28 28 27 27 28 28 28 28 28 28 28 28 28 28 27 27 26 26 26 26 27 27 28 28 28
26 27 27 26 25 26 25 25 25 25 25 26 27 27 27 28 27 28 28 28 29 29 29 29 29 29 28 28 28 28 27 27 27 26 26 25 25 25 26 27 27 27 28 28
Wind_Direction
250 249 248 253 256 257 261 263 264 264 256 255 255 259 263 266 262 263 268 274 273 274 277 277 278 278 277 276 276 280 283 284 281 278 278 280 284 287 291 294 292 288 284 283
250 250 252 254 258 259 259 260 262 262 261 257 256 260 262 265 260 260 266 272 278 281 279 280 282 278 276 276 278 283 286 286 285 284 282 285 287 289 291 291 291 288 284 283
258 257 256 256 255 256 255 259 262 263 264 264 262 262 259 261 261 261 266 271 275 280 283 283 283 282 281 283 285 286 286 286 286 285 283 284 285 287 288 288 287 286 286 286
259 259 258 257 255 253 256 262 263 264 262 265 265 263 260 261 261 261 264 268 275 281 282 284 282 281 284 285 287 288 287 287 285 283 282 284 285 289 289 285 286 287 288 288
257 254 254 254 253 254 259 262 262 264 263 263 265 265 259 262 262 263 265 268 274 280 282 283 283 283 284 286 286 285 284 287 286 283 283 284 285 286 288 287 287 288 289 289
256 253 255 257 257 258 259 262 264 266 266 263 262 262 258 261 263 268 271 274 279 284 283 282 283 285 285 286 285 283 284 285 284 282 281 282 282 283 285 288 288 287 288 286
260 258 259 256 258 258 256 258 260 262 264 263 261 261 261 264 267 269 272 276 282 287 287 284 283 284 284 283 282 283 285 286 283 281 280 280 280 281 284 285 286 287 288 289
267 263 259 258 259 261 260 262 262 265 268 268 265 264 263 267 273 275 276 280 283 287 287 286 286 286 285 283 280 281 283 285 284 281 280 281 280 279 282 283 285 286 288 289
268 262 259 257 258 259 259 261 261 263 265 271 268 266 264 272 277 281 284 285 285 286 287 288 290 292 290 287 281 281 283 284 284 283 282 282 281 279 279 281 283 285 288 288
268 265 260 261 261 261 260 261 260 260 263 266 267 267 268 272 278 280 281 284 286 287 288 289 290 291 292 288 284 282 282 284 284 282 281 282 281 279 278 279 283 283 285 287
270 266 264 263 263 265 262 259 259 260 263 265 266 268 272 275 281 282 282 283 284 286 287 288 289 289 289 288 287 284 283 282 282 281 280 281 280 279 279 281 282 282 281 284
269 268 264 264 264 264 263 261 259 261 263 264 266 266 267 272 278 280 280 282 283 283 286 288 290 291 291 290 289 286 284 282 281 281 280 280 279 278 279 281 282 283 283 283
267 265 263 263 263 263 262 261 259 261 262 262 265 269 267 270 275 276 278 281 282 282 285 288 290 292 293 293 290 288 286 284 281 280 280 281 281 279 279 280 281 282 286 286
267 267 266 266 265 263 260 259 260 263 263 263 265 268 270 272 273 276 278 279 281 280 282 286 289 291 292 292 292 290 287 285 283 281 281 280 280 280 280 280 282 283 286 287
267 268 268 265 263 261 259 259 261 262 264 265 265 268 268 269 273 276 278 279 279 280 281 285 288 289 290 290 291 292 289 286 283 282 282 280 278 279 280 281 283 284 285 286
266 268 266 263 260 259 259 261 261 261 260 263 265 267 268 269 271 273 275 277 277 280 283 285 287 288 288 288 290 291 289 286 283 282 282 281 279 279 281 280 282 284 286 287
265 265 264 260 258 259 257 258 260 263 263 264 264 266 267 267 269 270 272 274 276 278 281 284 285 286 288 289 288 289 288 287 285 283 282 282 281 280 281 281 281 282 284 286
263 263 264 263 259 258 261 260 261 262 263 265 266 266 266 268 269 271 273 274 276 277 280 283 285 285 286 286 285 287 287 286 285 283 282 282 281 281 281 282 281 281 282 284
261 262 264 265 263 261 261 261 263 264 265 265 267 268 269 269 270 272 274 275 276 278 280 283 284 285 286 286 285 286 287 285 283 282 283 282 281 281 282 282 281 280 281 283
261 261 263 266 267 265 262 263 264 262 263 263 266 270 271 270 272 274 275 277 278 278 279 281 282 284 286 286 286 286 286 286 286 285 284 282 281 281 280 281 280 279 279 281
259 260 263 265 268 268 265 264 264 262 264 263 265 268 270 272 274 275 276 276 279 279 279 281 282 283 284 286 286 286 286 286 286 285 284 284 283 282 282 281 281 280 280 281
257 260 262 264 266 267 266 266 265 265 264 264 266 268 271 273 274 274 274 276 279 279 280 281 283 284 284 285 285 285 285 285 286 285 284 283 283 283 282 281 281 281 281 283
257 260 263 264 266 267 266 267 268 268 267 266 267 269 273 274 274 274 276 277 278 279 280 281 283 284 284 284 283 285 286 286 286 285 285 284 283 283 282 281 282 282 281 282
256 258 260 264 266 267 266 266 268 270 270 270 271 271 273 275 275 276 277 277 277 280 282 283 284 284 284 284 284 286 287 287 286 286 285 285 285 284 283 282 282 284 284 284
257 258 260 263 266 268 268 268 269 270 271 272 273 273 273 275 276 275 276 276 277 279 282 284 285 285 283 283 284 285 286 287 287 286 286 284 284 284 284 285 285 287 286 285
258 260 261 263 264 266 267 267 268 269 270 271 273 273 273 273 273 276 276 275 276 278 281 283 284 284 283 283 283 283 285 286 285 284 285 285 285 286 286 286 286 286 287 288
Height
5840 5841 5841 5841 5842 5842 5842 5842 5842 5842 5842 5842 5842 5843 5843 5843 5843 5843 5843 5843 5843 5843 5843 5842 5842 5841 5840 5840 5839 5838 5838 5837 5837 5836 5836 5835 5834 5833 5833 5832 5830 5829 5828 5827
5838 5838 5839 5838 5839 5839 5839 5840 5840 5840 5840 5840 5840 5840 5840 5840 5840 5840 5840 5840 5840 5840 5840 5839 5839 5838 5837 5837 5836 5835 5834 5834 5833 5833 5832 5831 5830 5829 5828 5828 5827 5825 5824 5823
5835 5836 5835 5835 5836 5836 5837 5837 5837 5837 5837 5837 5837 5838 5838 5838 5837 5838 5838 5837 5837 5837 5837 5836 5835 5835 5834 5833 5832 5832 5831 5830 5829 5829 5828 5827 5827 5825 5825 5824 5823 5822 5820 5819
5832 5832 5832 5832 5833 5833 5833 5834 5834 5834 5834 5834 5835 5835 5835 5835 5835 5835 5835 5835 5834 5834 5834 5833 5832 5831 5830 5829 5829 5828 5827 5826 5825 5825 5824 5824 5823 5822 5820 5819 5818 5817 5816 5815
5829 5829 5829 5829 5830 5830 5830 5830 5830 5830 5830 5830 5831 5831 5832 5832 5832 5832 5831 5831 5831 5831 5830 5829 5828 5827 5826 5825 5824 5823 5823 5822 5821 5820 5820 5819 5818 5818 5816 5815 5814 5813 5812 5811
5825 5825 5825 5826 5826 5827 5827 5827 5826 5826 5826 5827 5827 5827 5829 5828 5829 5828 5828 5828 5827 5827 5826 5825 5824 5823 5822 5821 5820 5819 5819 5818 5817 5816 5815 5815 5814 5813 5812 5811 5811 5810 5808 5807
5821 5821 5821 5822 5822 5823 5823 5824 5824 5823 5822 5823 5824 5823 5825 5825 5825 5825 5824 5824 5823 5823 5822 5821 5820 5819 5818 5817 5816 5815 5815 5814 5813 5812 5811 5810 5810 5809 5808 5807 5806 5805 5804 5802
5817 5818 5818 5818 5819 5819 5819 5820 5820 5820 5820 5820 5820 5819 5821 5821 5821 5821 5820 5820 5819 5819 5818 5817 5816 5815 5814 5813 5812 5811 5810 5810 5809 5808 5806 5806 5805 5804 5803 5802 5801 5800 5799 5798
5813 5814 5814 5814 5814 5815 5815 5815 5816 5816 5815 5815 5816 5816 5816 5816 5817 5816 5816 5815 5815 5814 5814 5813 5812 5811 5810 5808 5807 5807 5806 5805 5804 5802 5801 5800 5800 5799 5798 5797 5796 5795 5794 5793
5808 5809 5810 5810 5810 5810 5811 5811 5811 5811 5811 5811 5812 5811 5813 5813 5812 5812 5812 5811 5811 5810 5809 5808 5807 5806 5805 5804 5803 5802 5801 5799 5798 5797 5796 5795 5794 5794 5793 5791 5790 5789 5788 5787
5804 5805 5805 5805 5805 5805 5806 5806 5806 5806 5806 5807 5807 5810 5809 5808 5808 5808 5808 5807 5807 5806 5805 5804 5803 5801 5800 5799 5798 5796 5795 5794 5793 5792 5791 5790 5789 5788 5787 5786 5785 5784 5783 5782
5800 5800 5800 5801 5801 5800 5801 5801 5801 5802 5802 5801 5802 5806 5804 5804 5803 5803 5803 5802 5802 5801 5800 5799 5798 5797 5795 5794 5792 5791 5790 5788 5787 5786 5785 5784 5783 5782 5782 5780 5779 5778 5777 5776
5796 5796 5796 5796 5797 5796 5795 5796 5796 5796 5796 5796 5796 5801 5799 5799 5798 5798 5797 5797 5797 5796 5796 5794 5793 5792 5791 5789 5787 5786 5784 5783 5782 5781 5780 5779 5778 5777 5776 5775 5773 5772 5770 5769
5791 5791 5791 5792 5791 5790 5790 5791 5791 5791 5790 5791 5792 5793 5794 5793 5793 5793 5792 5792 5792 5791 5790 5789 5788 5787 5786 5784 5782 5781 5779 5777 5776 5775 5774 5773 5772 5771 5770 5768 5767 5766 5764 5763
5785 5785 5785 5785 5785 5784 5784 5785 5785 5785 5785 5785 5787 5787 5788 5788 5787 5787 5787 5787 5786 5786 5785 5784 5783 5782 5780 5779 5777 5775 5773 5772 5770 5769 5768 5767 5765 5764 5763 5762 5760 5759 5758 5756
5779 5779 5779 5779 5779 5778 5779 5779 5779 5779 5779 5780 5780 5781 5782 5782 5782 5781 5781 5780 5780 5780 5779 5778 5777 5776 5774 5773 5771 5770 5768 5766 5764 5763 5761 5760 5758 5757 5756 5755 5754 5752 5751 5749
5772 5772 5772 5772 5773 5772 5773 5774 5773 5773 5774 5774 5775 5776 5776 5776 5776 5775 5774 5774 5774 5774 5773 5772 5771 5770 5768 5767 5765 5763 5761 5759 5758 5756 5755 5753 5752 5750 5749 5748 5746 5745 5744 5742
5766 5766 5765 5766 5767 5766 5770 5768 5768 5767 5768 5768 5768 5769 5769 5769 5769 5769 5768 5767 5767 5767 5766 5765 5764 5763 5761 5760 5758 5756 5755 5753 5751 5749 5748 5746 5745 5743 5742 5740 5739 5737 5736 5734
5760 5760 5759 5759 5759 5760 5762 5762 5761 5761 5761 5762 5762 5762 5762 5762 5762 5762 5762 5761 5760 5760 5759 5758 5757 5755 5754 5752 5751 5749 5747 5745 5743 5742 5740 5739 5737 5736 5734 5733 5731 5730 5728 5727
5753 5753 5754 5753 5752 5753 5757 5756 5754 5755 5755 5756 5756 5756 5756 5755 5755 5756 5755 5754 5753 5752 5752 5751 5749 5748 5746 5745 5743 5741 5739 5737 5735 5734 5732 5731 5729 5728 5726 5724 5723 5721 5720 5718
5746 5746 5747 5746 5745 5746 5749 5748 5748 5749 5751 5750 5749 5749 5749 5749 5749 5748 5747 5746 5745 5744 5744 5743 5741 5740 5738 5736 5735 5733 5731 5729 5727 5726 5724 5722 5721 5719 5717 5716 5714 5713 5711 5710
5739 5740 5740 5740 5739 5743 5742 5741 5742 5742 5742 5742 5742 5742 5742 5741 5741 5740 5739 5738 5738 5737 5736 5734 5733 5732 5730 5728 5727 5725 5723 5721 5719 5717 5715 5714 5712 5710 5709 5707 5706 5704 5703 5701
5732 5733 5733 5734 5735 5735 5734 5734 5734 5734 5735 5735 5735 5735 5735 5734 5733 5733 5732 5731 5730 5729 5728 5726 5725 5724 5722 5720 5718 5717 5715 5713 5710 5708 5706 5704 5703 5701 5700 5698 5697 5695 5694 5692
5724 5725 5725 5725 5726 5727 5727 5727 5727 5727 5727 5727 5727 5727 5726 5726 5725 5725 5724 5723 5722 5721 5719 5718 5717 5715 5713 5712 5710 5708 5706 5704 5702 5699 5697 5696 5694 5692 5691 5690 5688 5687 5685 5683
5717 5717 5717 5717 5719 5719 5719 5720 5720 5719 5719 5719 5719 5719 5718 5718 5717 5716 5715 5715 5713 5712 5711 5709 5708 5706 5705 5703 5701 5699 5697 5695 5693 5691 5689 5687 5685 5683 5682 5681 5680 5678 5676 5674
5709 5709 5709 5710 5711 5711 5711 5712 5711 5711 5711 5711 5711 5710 5710 5709 5708 5708 5707 5706 5704 5703 5702 5700 5699 5697 5696 5694 5692 5690 5689 5687 5685 5683 5681 5679 5677 5675 5674 5672 5671 5669 5668 5666